Location: Austin
(30.3000°N, 97.7500°W)
Time: 07:21:34
(UTC-05:00)

SWIFT - Pass Details

Date: 19 September 2023
Orbit: 522 x 535 km, 20.6° (Epoch: 26 September)

Event Time Altitude Azimuth Distance (km) Brightness Sun altitude
Exits shadow 05:52:33 18° 188° (S) 1,315 4.0 -19.0°
Maximum altitude 05:52:36 18° 187° (S) 1,315 4.0 -19.0°
Drops below altitude 10° 05:55:26 10° 142° (SE) 1,755 5.2 -18.4°
Sets 05:58:14 0° 123° (ESE) 2,646 6.5 -17.8°
